Kosmos-2414

operational
NORAD ID: 28521 Int'l Des: 2005-002 Owner: VMFR Country: RU
LEOCIRCULARPOLAR

关于 Kosmos-2414

正在加载描述...

实时位置

正在加载3D地球...

即将过境

高度历史

Altitude vs Time

uPlot chart will show altitude changes over time

两行轨道根数

1 28521U 05002A 26062.12986900 .00000102 00000-0 72840-4 0 9994
2 28521 82.9494 123.8803 0038664 271.7543 87.9192 13.87914338 69106
Epoch: Mar 3, 2026 • Age: 30 hours

当前状态

高度 936.0 km
速度 7.39 km/s
星下点 -6.44°S, 52.28°E
发射日期 Jan 20, 2005
运行时间 21.1 years
类型 other

技术详情

分类 Payload
质量 820.00 kg
干质量 820.00 kg
总质量 820.00 kg
长度 5.00 m
直径 2.00 m
跨度 17.00 m
形状 Cyl + Ant
制造商 POL
平台类型 KAUR-1 11F627
阶段状态 In Orbit
所有者/国家 VMFR/RU

大型星座

Loading constellations...